When you browse on this site, cookies collect data to enhance your experience and personalize the content and advertising you see.
Visit our Privacy Policy to learn more. By continuing to use the site, you agree to this use of cookies and data.
  • In Romania
  • List of Countries
  • For 7 days
  • Water Temperature
  • Satellite Maps
  • Weather Map
  • Weather Widgets
  • user-avatar
    Login

    Hourly Weather Azzano Decimo

    Today, 19 July, Friday

    Time Temperature Precipitation Wind Pressure Humidity
    00:00 +20°C° 0 mm 1 mps 760 mmHg 75%
    01:00 +20°C° 0 mm 1 mps 761 mmHg 77%
    02:00 +19°C° 0.1 mm 2 mps 761 mmHg 78%
    03:00 +18°C° 0.1 mm 2 mps 761 mmHg 79%
    04:00 +18°C° 0.1 mm 2 mps 761 mmHg 80%
    05:00 +19°C° 0 mm 2 mps 761 mmHg 78%
    06:00 +21°C° 0 mm 1 mps 761 mmHg 76%
    07:00 +23°C° 0 mm 1 mps 761 mmHg 73%
    08:00 +24°C° 0 mm 1 mps 761 mmHg 68%
    09:00 +26°C° 0 mm 1 mps 761 mmHg 63%
    10:00 +28°C° 0 mm 1 mps 761 mmHg 59%
    11:00 +28°C° 0.1 mm 1 mps 761 mmHg 56%
    12:00 +29°C° 0.1 mm 1 mps 761 mmHg 54%
    13:00 +30°C° 0 mm 2 mps 761 mmHg 52%
    14:00 +30°C° 0.1 mm 2 mps 760 mmHg 53%
    15:00 +30°C° 0.1 mm 2 mps 760 mmHg 54%
    16:00 +30°C° 0.1 mm 2 mps 760 mmHg 55%
    17:00 +28°C° 0.2 mm 2 mps 760 mmHg 61%
    18:00 +27°C° 0.2 mm 1 mps 761 mmHg 66%
    19:00 +26°C° 0.2 mm 1 mps 761 mmHg 72%
    20:00 +25°C° 0 mm 1 mps 761 mmHg 73%
    21:00 +23°C° 0 mm 1 mps 761 mmHg 74%
    22:00 +20°C° 0 mm 0 mps 762 mmHg 75%
    23:00 +22°C° 0 mm 1 mps 762 mmHg 77%

    Tomorrow, 20 July, Saturday

    Time Temperature Precipitation Wind Pressure Humidity
    00:00 +21°C° 0 mm 1 mps 762 mmHg 78%
    01:00 +21°C° 0 mm 1 mps 762 mmHg 80%
    02:00 +21°C° 0 mm 1 mps 762 mmHg 81%
    03:00 +20°C° 0 mm 1 mps 762 mmHg 83%
    04:00 +20°C° 0 mm 1 mps 762 mmHg 85%
    05:00 +21°C° 0 mm 1 mps 762 mmHg 82%
    06:00 +22°C° 0 mm 1 mps 762 mmHg 80%
    07:00 +23°C° 0 mm 1 mps 762 mmHg 78%
    08:00 +25°C° 0 mm 1 mps 762 mmHg 73%
    09:00 +27°C° 0 mm 1 mps 762 mmHg 67%
    10:00 +28°C° 0 mm 1 mps 762 mmHg 62%
    11:00 +29°C° 0 mm 1 mps 762 mmHg 60%
    12:00 +30°C° 0 mm 2 mps 762 mmHg 58%
    13:00 +30°C° 0 mm 2 mps 762 mmHg 56%
    14:00 +30°C° 0 mm 2 mps 762 mmHg 58%
    15:00 +30°C° 0 mm 2 mps 762 mmHg 59%
    16:00 +30°C° 0 mm 2 mps 762 mmHg 61%
    17:00 +28°C° 0.1 mm 2 mps 762 mmHg 66%
    18:00 +27°C° 0.1 mm 1 mps 762 mmHg 71%
    19:00 +26°C° 0.1 mm 1 mps 763 mmHg 76%
    20:00 +25°C° 0 mm 1 mps 763 mmHg 78%
    21:00 +22°C° 0 mm 0 mps 763 mmHg 80%
    22:00 +21°C° 0 mm 0 mps 764 mmHg 82%
    23:00 +21°C° 0 mm 0 mps 764 mmHg 84%

    Day after tomorrow, 21 July, Sunday

    Time Temperature Precipitation Wind Pressure Humidity
    00:00 +22°C° 0 mm 1 mps 764 mmHg 85%
    01:00 +22°C° 0 mm 1 mps 764 mmHg 86%
    02:00 +22°C° 0 mm 1 mps 764 mmHg 87%
    03:00 +22°C° 0 mm 1 mps 764 mmHg 88%
    04:00 +21°C° 0 mm 1 mps 764 mmHg 89%
    05:00 +22°C° 0 mm 1 mps 764 mmHg 86%
    06:00 +23°C° 0 mm 1 mps 764 mmHg 83%
    07:00 +22°C° 0 mm 0 mps 764 mmHg 81%
    08:00 +26°C° 0 mm 1 mps 764 mmHg 76%
    09:00 +27°C° 0 mm 1 mps 764 mmHg 72%
    10:00 +29°C° 0 mm 1 mps 764 mmHg 68%
    11:00 +30°C° 0 mm 1 mps 764 mmHg 65%
    12:00 +30°C° 0 mm 1 mps 764 mmHg 63%
    13:00 +31°C° 0 mm 2 mps 764 mmHg 61%
    14:00 +31°C° 0 mm 1 mps 764 mmHg 61%
    15:00 +31°C° 0 mm 1 mps 764 mmHg 62%
    16:00 +31°C° 0 mm 1 mps 764 mmHg 62%
    17:00 +30°C° 0 mm 1 mps 764 mmHg 67%
    18:00 +29°C° 0 mm 1 mps 764 mmHg 72%
    19:00 +28°C° 0 mm 1 mps 764 mmHg 77%
    20:00 +27°C° 0.2 mm 1 mps 765 mmHg 79%
    21:00 +26°C° 0.2 mm 1 mps 765 mmHg 80%
    22:00 +25°C° 0.2 mm 1 mps 766 mmHg 82%
    23:00 +24°C° 0.1 mm 1 mps 766 mmHg 84%

    22 July, Monday

    Time Temperature Precipitation Wind Pressure Humidity
    00:00 +24°C° 0.1 mm 1 mps 766 mmHg 86%
    01:00 +23°C° 0.1 mm 1 mps 766 mmHg 88%
    02:00 +23°C° 0 mm 1 mps 766 mmHg 86%
    03:00 +23°C° 0 mm 1 mps 766 mmHg 85%
    04:00 +21°C° 0 mm 2 mps 766 mmHg 84%
    05:00 +23°C° 0 mm 2 mps 766 mmHg 81%
    06:00 +24°C° 0 mm 1 mps 766 mmHg 78%
    07:00 +25°C° 0 mm 1 mps 766 mmHg 75%
    08:00 +27°C° 0 mm 1 mps 766 mmHg 70%
    09:00 +29°C° 0 mm 1 mps 766 mmHg 65%
    10:00 +30°C° 0 mm 1 mps 766 mmHg 60%
    11:00 +31°C° 0 mm 1 mps 765 mmHg 57%
    12:00 +32°C° 0 mm 1 mps 765 mmHg 54%
    13:00 +33°C° 0 mm 1 mps 765 mmHg 51%
    14:00 +33°C° 0 mm 1 mps 765 mmHg 51%
    15:00 +33°C° 0 mm 1 mps 764 mmHg 51%
    16:00 +33°C° 0 mm 1 mps 764 mmHg 51%
    17:00 +32°C° 0 mm 1 mps 764 mmHg 57%
    18:00 +31°C° 0 mm 1 mps 764 mmHg 62%
    19:00 +28°C° 0 mm 0 mps 764 mmHg 68%
    20:00 +29°C° 0 mm 1 mps 765 mmHg 69%
    21:00 +27°C° 0 mm 1 mps 765 mmHg 71%
    22:00 +26°C° 0 mm 1 mps 765 mmHg 72%
    23:00 +26°C° 0 mm 1 mps 765 mmHg 72%

    23 July, Tuesday

    Time Temperature Precipitation Wind Pressure Humidity
    00:00 +26°C° 0 mm 2 mps 765 mmHg 73%
    01:00 +25°C° 0 mm 2 mps 765 mmHg 73%
    02:00 +25°C° 0 mm 2 mps 765 mmHg 73%
    03:00 +25°C° 0 mm 2 mps 765 mmHg 73%
    04:00 +24°C° 0 mm 2 mps 765 mmHg 73%
    05:00 +25°C° 0 mm 2 mps 764 mmHg 73%
    06:00 +26°C° 0 mm 2 mps 764 mmHg 72%
    07:00 +27°C° 0 mm 2 mps 764 mmHg 72%
    08:00 +28°C° 0 mm 2 mps 764 mmHg 67%
    09:00 +30°C° 0 mm 2 mps 764 mmHg 62%
    10:00 +31°C° 0 mm 2 mps 764 mmHg 57%
    11:00 +32°C° 0 mm 2 mps 764 mmHg 55%
    12:00 +33°C° 0 mm 1 mps 764 mmHg 52%
    13:00 +34°C° 0 mm 1 mps 763 mmHg 50%
    14:00 +35°C° 0 mm 2 mps 763 mmHg 51%
    15:00 +35°C° 0 mm 2 mps 763 mmHg 51%
    16:00 +34°C° 0 mm 2 mps 763 mmHg 52%
    17:00 +32°C° 0 mm 2 mps 763 mmHg 59%
    18:00 +30°C° 0 mm 2 mps 763 mmHg 65%
    19:00 +29°C° 0 mm 2 mps 763 mmHg 72%
    20:00 +28°C° 0 mm 1 mps 763 mmHg 72%
    21:00 +27°C° 0 mm 1 mps 764 mmHg 73%
    22:00 +26°C° 0 mm 1 mps 764 mmHg 73%
    23:00 +25°C° 0 mm 1 mps 764 mmHg 75%

    24 July, Wednesday

    Time Temperature Precipitation Wind Pressure Humidity
    00:00 +25°C° 0 mm 1 mps 764 mmHg 77%
    01:00 +25°C° 0 mm 1 mps 764 mmHg 80%
    02:00 +24°C° 0 mm 1 mps 764 mmHg 80%
    03:00 +24°C° 0 mm 1 mps 764 mmHg 81%
    04:00 +24°C° 0 mm 1 mps 763 mmHg 82%
    05:00 +25°C° 0 mm 1 mps 763 mmHg 79%
    06:00 +26°C° 0 mm 1 mps 764 mmHg 76%
    07:00 +27°C° 0 mm 1 mps 764 mmHg 74%
    08:00 +28°C° 0 mm 1 mps 764 mmHg 69%
    09:00 +30°C° 0 mm 1 mps 763 mmHg 64%
    10:00 +31°C° 0 mm 1 mps 763 mmHg 59%
    11:00 +32°C° 0 mm 1 mps 763 mmHg 57%
    12:00 +33°C° 0 mm 1 mps 763 mmHg 54%
    13:00 +33°C° 0 mm 1 mps 763 mmHg 52%
    14:00 +33°C° 0 mm 1 mps 762 mmHg 52%
    15:00 +33°C° 0 mm 1 mps 762 mmHg 53%
    16:00 +34°C° 0 mm 1 mps 762 mmHg 53%
    17:00 +32°C° 0 mm 1 mps 762 mmHg 59%
    18:00 +31°C° 0 mm 1 mps 762 mmHg 65%
    19:00 +30°C° 0 mm 1 mps 762 mmHg 71%
    20:00 +29°C° 0 mm 1 mps 762 mmHg 73%
    21:00 +28°C° 0 mm 1 mps 763 mmHg 75%
    22:00 +26°C° 0 mm 1 mps 763 mmHg 77%
    23:00 +26°C° 0 mm 1 mps 763 mmHg 78%
    Show more